Dryden, TX

9:27 AM CDT on August 19, 2017 (GMT -0500)
Dryden

Weather History for K6R6 - September, 2012

Change the Weather History Date:

Sunday, September 2, 2012

  Actual Average (KFST) Record (KFST)
Temperature  
Mean Temperature 86 °F -  
Max Temperature 98 °F 89 °F 100 °F (2000)
Min Temperature 75 °F 66 °F 57 °F (2004)
Cooling Degree Days 20    
Growing Degree Days 36 (Base 50)    
Moisture  
Dew Point 63 °F    
Average Humidity 46    
Maximum Humidity 67    
Minimum Humidity 32    
Precipitation  
Precipitation 0.00 in - - ()
Sea Level Pressure  
Sea Level Pressure 29.87 in    
Wind  
Wind Speed 9 mph (ESE)    
Max Wind Speed 14 mph    
Max Gust Speed 20 mph    
Averages and records for this station are not official NWS values.
T = Trace of Precipitation, MM = Missing Value Source: NWS Daily Summary

Daily Weather History Graph

Daily Weather History Graph

Search for Another Location

Airport or City:

Trip Planner

Search our weather history database for the weather conditions in past years. The results will help you decide how hot, cold, wet, or windy it might be!

Date:

Astronomy

Sep. 02, 2012 Rise Set
Actual Time 7:26 AM CDT 8:09 PM CDT
Civil Twilight 7:02 AM CDT 8:33 PM CDT
Nautical Twilight 6:33 AM CDT 9:02 PM CDT
Astronomical Twilight 6:04 AM CDT 9:31 PM CDT
Moon 9:14 PM CDT (9/2) 9:22 AM CDT (9/2)
Length of Visible Light 13h 31m
Length of Day
12h 42m
Waning Gibbous, 95% of the Moon is Illuminated
Sep 2
Waning Gibbous
Sep 8
Last Quarter
Sep 15
New
Sep 22
First Quarter
Sep 29
Full

Hourly Weather History & Observations

Time (CDT) Temp. Heat Index Dew Point Humidity Pressure Visibility Wind Dir Wind Speed Gust Speed Precip Events Conditions
12:53 AM 86.0 °F 86.3 °F 62.1 °F 44% 29.89 in - ESE 10.4 mph - N/A   Unknown
1:53 AM 84.0 °F 84.9 °F 63.0 °F 49% 29.88 in - ESE 8.1 mph - N/A   Unknown
2:53 AM 82.9 °F 84.0 °F 63.0 °F 51% 29.88 in - ESE 11.5 mph - N/A   Unknown
3:53 AM 81.0 °F 82.7 °F 64.9 °F 58% 29.88 in - ESE 12.7 mph - N/A   Unknown
4:53 AM 79.0 °F - 66.0 °F 64% 29.88 in - SE 5.8 mph - N/A   Unknown
5:53 AM 78.1 °F - 66.0 °F 66% 29.89 in - ESE 5.8 mph - N/A   Unknown
6:53 AM 77.0 °F - 64.0 °F 64% 29.90 in - East 3.5 mph - N/A   Unknown
7:53 AM 75.9 °F - 64.0 °F 67% 29.93 in - East 4.6 mph - N/A   Unknown
8:53 AM 80.1 °F 81.7 °F 64.0 °F 58% 29.94 in - SE 9.2 mph - N/A   Unknown
9:53 AM 82.0 °F 83.4 °F 64.0 °F 54% 29.95 in - ESE 8.1 mph - N/A   Unknown
10:53 AM 86.0 °F 87.3 °F 64.0 °F 48% 29.95 in - East 8.1 mph - N/A   Unknown
11:53 AM 89.1 °F 91.0 °F 64.9 °F 45% 29.94 in - SE 11.5 mph - N/A   Unknown
12:53 PM 91.0 °F 93.0 °F 64.9 °F 42% 29.91 in - East 10.4 mph 17.3 mph N/A   Unknown
1:53 PM 95.0 °F 96.0 °F 63.0 °F 34% 29.88 in - SSE 10.4 mph 19.6 mph N/A   Unknown
2:53 PM 95.0 °F 95.2 °F 61.0 °F 32% 29.86 in - East 11.5 mph 16.1 mph N/A   Unknown
3:53 PM 96.1 °F 96.9 °F 62.1 °F 32% 29.84 in - ESE 10.4 mph - N/A   Unknown
4:53 PM 96.1 °F 96.9 °F 62.1 °F 32% 29.82 in - East 8.1 mph 18.4 mph N/A   Unknown
5:53 PM 96.1 °F 96.9 °F 62.1 °F 32% 29.81 in - ENE 9.2 mph 16.1 mph N/A   Unknown
6:53 PM 95.0 °F 95.6 °F 62.1 °F 33% 29.81 in - ESE 9.2 mph 19.6 mph N/A   Unknown
7:53 PM 93.0 °F 93.8 °F 62.1 °F 36% 29.81 in - East 13.8 mph - N/A   Unknown
8:53 PM 91.0 °F 91.5 °F 62.1 °F 38% 29.81 in - East 10.4 mph - N/A   Unknown
9:53 PM 90.0 °F 90.3 °F 62.1 °F 39% 29.83 in - ESE 12.7 mph - N/A   Unknown
10:53 PM 89.1 °F 89.3 °F 62.1 °F 40% 29.85 in - ESE 10.4 mph - N/A   Unknown
11:53 PM 87.1 °F 87.8 °F 63.0 °F 44% 29.85 in - ESE 8.1 mph - N/A   Unknown